Waarnemingen

Advertentie
Mijn weer
Lugo/Rozas, Spanje (8008): temperatuur & dauwpunt: 19.11.2017 02:00:00 - 25.11.2017 02:00:00 (CET)Lugo/Rozas, Spanje (8008): windsnelheid: 19.11.2017 02:00:00 - 25.11.2017 02:00:00 (CET)Lugo/Rozas, Spanje (8008): windrichting: 19.11.2017 02:00:00 - 25.11.2017 02:00:00 (CET)Lugo/Rozas, Spanje (8008): luchtdruk: 19.11.2017 02:00:00 - 25.11.2017 02:00:00 (CET)Lugo/Rozas, Spanje (8008): zicht: 19.11.2017 02:00:00 - 25.11.2017 02:00:00 (CET)Lugo/Rozas, Spanje (8008): neerslag: 19.11.2017 02:00:00 - 25.11.2017 02:00:00 (CET)
Datum & Tijd tt [°C] td [°C] ff [km/u] ff [kn] dd ppp [hPa] vv [km] rr [mm]
25.11.2017 02:00:00 8,3 8,0 2 1 N 1022,0 19 0,0
25.11.2017 01:00:00 8,4 8,0 5 3 NO 1021,3 20 -
25.11.2017 00:00:00 9,4 9,1 5 3 ONO 1020,8 6 3,0
24.11.2017 23:00:00 10,3 10,0 2 1 NNW 1020,0 3,3 3,0
24.11.2017 22:00:00 10,4 10,2 4 2 NNO 1018,7 4,0 -
24.11.2017 21:00:00 11,0 10,8 4 2 NO 1017,3 2,7 2,0
24.11.2017 20:00:00 11,3 11,0 2 1 NW 1016,9 2,0 2,0
24.11.2017 19:00:00 11,4 11,1 2 1 WNW 1016,5 4,3 -
24.11.2017 18:00:00 11,7 11,4 2 1 O 1016,5 2,3 2,0
24.11.2017 17:00:00 11,9 11,6 2 1 ONO 1016,5 7 3,0
24.11.2017 16:00:00 12,0 11,5 2 1 ZZO 1016,4 18 -
24.11.2017 15:00:00 11,2 10,9 5 3 ZZO 1016,8 3,9 0,6
24.11.2017 14:00:00 11,4 10,9 2 1 NO 1017,4 3,0 1,0
24.11.2017 13:00:00 11,5 11,2 2 1 O 1017,6 12 -
24.11.2017 12:00:00 11,2 10,9 4 2 O 1018,2 4,4 0,2
24.11.2017 11:00:00 10,9 10,6 2 1 N 1018,1 8 0,0
24.11.2017 10:00:00 10,7 10,7 2 1 WNW 1017,2 15 -
24.11.2017 09:00:00 10,1 9,9 4 2 ZO 1016,8 20 0,4
24.11.2017 08:00:00 9,9 9,6 4 2 ZZO 1016,9 - 0,4
24.11.2017 07:00:00 10,3 10,0 2 1 O 1016,8 12 -
24.11.2017 06:00:00 10,3 9,7 2 1 NO 1016,1 2,4 2,0
24.11.2017 05:00:00 11,6 11,3 4 2 NW 1015,2 1,5 1,0
24.11.2017 04:00:00 11,8 11,2 9 5 ZZW 1014,6 9 -
24.11.2017 03:00:00 12,0 11,2 5 3 ZW 1014,2 3,1 1,0
24.11.2017 02:00:00 12,4 11,1 5 3 ZZW 1014,0 10 0,0
24.11.2017 01:00:00 12,6 11,0 9 5 WZW 1014,5 20 -
24.11.2017 00:00:00 12,9 11,3 8 4 ZW 1014,3 8 0,4
23.11.2017 23:00:00 13,4 11,3 8 4 ZW 1014,2 20 0,0
23.11.2017 22:00:00 13,6 12,3 8 4 ZZW 1014,4 20 -
23.11.2017 21:00:00 13,7 12,8 9 5 ZW 1014,2 20 0,0
23.11.2017 20:00:00 14,0 13,2 11 6 ZW 1013,8 11 1,0
23.11.2017 19:00:00 15,1 13,3 11 6 ZW 1013,1 10 -
23.11.2017 18:00:00 16,2 12,0 15 8 ZW 1012,4 20 0,0
23.11.2017 17:00:00 17,1 10,9 15 8 WZW 1012,1 20 0,0
23.11.2017 16:00:00 17,3 10,4 16 9 ZW 1011,5 20 -
23.11.2017 15:00:00 17,4 10,5 16 9 ZW 1011,4 20 0,0
23.11.2017 14:00:00 17,0 10,4 18 10 ZW 1011,7 20 0,0
23.11.2017 13:00:00 16,2 10,7 15 8 ZW 1012,2 25 -
23.11.2017 12:00:00 15,4 11,8 13 7 ZW 1012,2 20 0,0
23.11.2017 11:00:00 14,0 11,3 11 6 ZW 1012,4 20 0,0
23.11.2017 10:00:00 13,1 11,0 8 4 ZW 1012,3 25 -
23.11.2017 09:00:00 11,7 10,3 8 4 ZW 1011,7 20 0,0
23.11.2017 08:00:00 12,2 10,6 9 5 ZZW 1010,7 20 0,0
23.11.2017 07:00:00 11,8 10,9 9 5 Z 1010,1 20 -
23.11.2017 06:00:00 11,6 10,7 11 6 ZW 1009,5 20 0,0
23.11.2017 05:00:00 11,8 10,9 16 9 ZW 1008,6 17 0,0
23.11.2017 04:00:00 11,8 10,7 15 8 ZW 1007,7 20 -
23.11.2017 03:00:00 12,3 10,7 15 8 ZZW 1007,2 15 0,0
23.11.2017 02:00:00 12,6 10,3 13 7 ZW 1006,9 17 0,0
23.11.2017 01:00:00 12,2 10,4 9 5 ZZW 1006,6 18 -
23.11.2017 00:00:00 12,2 11,3 16 9 ZZW 1006,5 17 2,0
22.11.2017 23:00:00 11,7 10,8 13 7 Z 1007,0 7 0,6
22.11.2017 22:00:00 11,7 10,8 16 9 ZZW 1006,5 - -
22.11.2017 21:00:00 12,3 9,7 18 10 ZW 1006,5 11 2,0
22.11.2017 20:00:00 15,6 6,6 22 12 ZW 1004,9 12 0,0
22.11.2017 19:00:00 16,7 4,4 21 11 ZW 1004,0 20 -
22.11.2017 18:00:00 17,2 4,2 18 10 ZZW 1003,1 20 0,0
22.11.2017 17:00:00 18,0 4,5 21 11 ZZW 1002,5 20 0,0
22.11.2017 16:00:00 18,4 4,9 22 12 ZZW 1002,8 20 -
22.11.2017 15:00:00 17,8 5,0 24 13 ZZW 1004,2 20 0,0
22.11.2017 14:00:00 17,4 5,0 16 9 ZW 1006,8 20 0,0
22.11.2017 13:00:00 16,6 4,6 18 10 ZW 1007,8 25 -
22.11.2017 12:00:00 15,9 4,0 13 7 ZZW 1008,3 20 0,0
22.11.2017 11:00:00 15,6 3,1 13 7 Z 1008,4 20 0,0
22.11.2017 10:00:00 15,1 1,6 15 8 ZZW 1009,1 25 -
22.11.2017 09:00:00 13,3 1,3 11 6 Z 1009,1 20 0,0
22.11.2017 08:00:00 12,5 1,5 9 5 Z 1010,2 20 0,0
22.11.2017 07:00:00 12,6 1,3 11 6 Z 1010,6 20 -
22.11.2017 06:00:00 12,9 1,5 9 5 Z 1011,2 20 0,0
22.11.2017 05:00:00 12,5 1,2 9 5 ZZW 1011,8 20 0,0
22.11.2017 04:00:00 12,4 1,1 11 6 Z 1012,4 20 -
22.11.2017 03:00:00 12,2 0,9 9 5 Z 1013,0 20 0,0
22.11.2017 02:00:00 11,8 0,8 11 6 Z 1013,8 20 0,0
22.11.2017 01:00:00 10,9 0,9 8 4 ZZW 1014,7 20 -
22.11.2017 00:00:00 8,6 0,6 8 4 ZW 1015,9 20 0,0
21.11.2017 23:00:00 5,5 1,2 2 1 ONO 1016,7 20 0,0
21.11.2017 22:00:00 8,1 1,7 4 2 ZO 1016,6 20 -
21.11.2017 21:00:00 6,5 1,8 8 4 ZZO 1017,7 20 0,0
21.11.2017 20:00:00 7,1 3,2 4 2 Z 1018,2 20 0,0
21.11.2017 19:00:00 9,1 3,7 4 2 Z 1017,8 20 -
21.11.2017 18:00:00 13,0 5,9 4 2 Z 1016,9 20 0,0
21.11.2017 17:00:00 17,5 6,1 4 2 ZZO 1016,6 20 0,0
21.11.2017 16:00:00 18,0 3,5 5 3 ZW 1016,8 20 -
21.11.2017 15:00:00 18,7 2,5 9 5 ZZW 1017,4 20 0,0
21.11.2017 14:00:00 17,9 2,6 9 5 ZW 1018,3 20 0,0
21.11.2017 13:00:00 16,2 2,2 5 3 ZW 1019,5 25 -
21.11.2017 12:00:00 10,5 6,4 4 2 NNO 1021,7 20 0,0
21.11.2017 11:00:00 5,9 4,9 2 1 N 1022,9 20 0,0
21.11.2017 10:00:00 2,0 1,9 2 1 OZO 1024,0 25 -
21.11.2017 09:00:00 -1,2 -1,8 0 0 N 1024,5 19 0,0
21.11.2017 08:00:00 -1,4 -2,4 0 0 N 1024,5 19 0,0
21.11.2017 07:00:00 -1,2 -1,9 2 1 WNW 1024,3 20 -
21.11.2017 06:00:00 -0,9 -1,5 2 1 ZZO 1024,4 12 0,0
21.11.2017 05:00:00 -1,0 -1,7 2 1 ZW 1024,4 14 0,0
21.11.2017 04:00:00 -0,3 -0,9 0 0 N 1024,0 10 -
21.11.2017 03:00:00 -0,1 -0,7 2 1 ONO 1024,1 15 0,0
21.11.2017 02:00:00 0,6 -0,3 0 0 N 1024,5 13 0,0
21.11.2017 01:00:00 1,1 0,2 2 1 ZO 1024,6 20 -
21.11.2017 00:00:00 1,8 0,8 2 1 ZW 1024,5 20 0,0
20.11.2017 23:00:00 2,7 1,2 2 1 NNW 1024,5 20 0,0
20.11.2017 22:00:00 3,4 1,8 2 1 Z 1024,6 20 -
20.11.2017 21:00:00 4,5 2,4 4 2 ZZO 1024,8 20 0,0
20.11.2017 20:00:00 5,9 2,7 4 2 ZZO 1024,1 20 0,0
20.11.2017 19:00:00 8,3 4,3 4 2 Z 1023,3 20 -
20.11.2017 18:00:00 12,3 5,9 4 2 Z 1022,1 20 0,0
20.11.2017 17:00:00 17,1 5,1 2 1 Z 1021,0 20 0,0
20.11.2017 16:00:00 17,2 2,0 4 2 ZW 1020,9 20 -
20.11.2017 15:00:00 14,7 6,0 2 1 ONO 1021,6 20 0,0
20.11.2017 14:00:00 11,8 7,7 4 2 ONO 1022,7 20 0,0
20.11.2017 13:00:00 8,9 7,0 2 1 N 1024,0 25 -
20.11.2017 12:00:00 4,8 4,5 2 1 N 1025,7 16 0,0
20.11.2017 11:00:00 1,0 1,0 2 1 N 1027,1 0,3 0,0
20.11.2017 10:00:00 -0,5 -0,5 2 1 OZO 1027,1 0,2 -
20.11.2017 09:00:00 -1,0 -1,3 0 0 N 1027,1 0,3 0,0
20.11.2017 08:00:00 -0,6 -0,9 2 1 O 1026,6 0,2 0,0
20.11.2017 07:00:00 0,2 0,1 2 1 ZZO 1026,2 0,2 -
20.11.2017 06:00:00 0,2 0,1 2 1 O 1026,1 0,3 0,0
20.11.2017 05:00:00 0,4 0,4 0 0 N 1025,7 0,1 0,0
20.11.2017 04:00:00 -0,2 -0,9 2 1 WZW 1025,7 8 -
20.11.2017 03:00:00 0,5 0,2 2 1 O 1025,8 0,8 0,0
20.11.2017 02:00:00 1,0 0,9 2 1 WZW 1026,2 0,2 0,0
20.11.2017 01:00:00 1,7 1,3 2 1 Z 1026,0 2,4 -
20.11.2017 00:00:00 2,5 1,8 2 1 ZZW 1025,9 3,5 0,0
19.11.2017 23:00:00 3,0 2,3 2 1 ZZO 1026,2 - 0,0
19.11.2017 22:00:00 4,1 3,7 4 2 ZO 1025,3 2,7 -
19.11.2017 21:00:00 5,0 4,1 4 2 ZZO 1024,9 2,6 0,0
19.11.2017 20:00:00 6,1 4,7 4 2 ZZO 1024,7 16 0,0
19.11.2017 19:00:00 8,2 6,2 4 2 ZZO 1023,7 13 -
19.11.2017 18:00:00 12,6 8,1 0 0 N 1022,5 14 0,0
19.11.2017 17:00:00 14,5 9,7 0 0 N 1022,1 20 0,0
19.11.2017 16:00:00 13,7 9,3 2 1 ONO 1022,2 20 -
19.11.2017 15:00:00 12,4 8,9 2 1 NO 1022,5 20 0,0
19.11.2017 14:00:00 9,8 7,9 4 2 N 1023,7 19 0,0
19.11.2017 13:00:00 7,2 6,8 2 1 WNW 1024,8 9 -
19.11.2017 12:00:00 4,3 4,3 2 1 ONO 1026,3 0,2 0,0
19.11.2017 11:00:00 2,9 2,9 2 1 NNW 1026,2 0,2 0,0
19.11.2017 10:00:00 1,8 1,8 2 1 ONO 1026,4 0,2 -
19.11.2017 09:00:00 1,8 1,8 2 1 ZZW 1026,0 0,1 0,0
19.11.2017 08:00:00 1,8 1,8 2 1 ZZO 1025,1 0,2 0,0
19.11.2017 07:00:00 2,2 2,2 2 1 ZZO 1024,8 0,2 -
19.11.2017 06:00:00 2,5 2,5 4 2 ZW 1024,9 0,2 0,0
19.11.2017 05:00:00 2,5 2,2 2 1 ZZO 1024,9 0,2 0,0
19.11.2017 04:00:00 3,3 3,2 4 2 ZW 1024,9 0,2 -
19.11.2017 03:00:00 3,4 3,3 4 2 ZW 1024,8 0,2 0,0
19.11.2017 02:00:00 4,7 4,7 0 0 N 1024,4 0,1 0,0

tt = temperatuur
td = dauwpunt
ff = windsnelheid
dd = windrichting
ppp = luchtdruk
vv = zicht
rr = neerslag

Weerstations in de omgeving